Probability
62 62 60 55 50 48 45 42 37 29 24 24 27 30 33 32 27 24 20 15 12 9 7 5 4 3 3 2 1 0 0 0 0 0 0 0 0 0 0 0 0 0 0
61 62 60 54 47 45 43 40 35 29 24 24 26 27 29 28 25 23 21 17 12 9 6 5 4 3 3 3 1 0 0 0 0 0 0 0 0 0 0 0 0 0 0
59 62 59 50 43 40 39 37 33 28 25 25 26 25 24 23 22 21 20 16 12 8 6 4 3 3 3 3 2 1 0 0 0 0 0 0 0 0 0 0 0 0 0
56 59 55 45 38 35 33 31 28 25 24 25 26 25 23 20 20 19 17 15 12 9 6 4 3 3 3 3 3 1 0 0 0 0 0 0 0 0 0 0 0 0 0
50 52 49 41 34 31 29 26 24 22 22 24 26 26 23 21 20 18 16 14 12 10 7 5 4 3 3 3 3 2 1 0 0 0 0 0 0 0 0 0 0 0 0
43 43 41 38 32 27 26 24 20 18 19 20 23 24 24 23 20 16 14 13 12 10 7 5 4 4 3 3 3 2 1 0 0 0 0 0 0 0 0 0 0 0 0
35 35 36 36 31 25 23 22 18 14 14 16 19 21 22 21 18 14 12 12 10 9 8 6 4 4 4 3 3 2 1 0 0 0 0 0 0 0 0 0 0 0 0
31 30 31 32 30 25 22 20 16 14 14 15 17 19 18 16 15 13 10 8 7 8 9 8 5 4 4 3 3 2 1 0 0 0 0 0 0 0 0 0 0 0 0
29 27 26 28 28 25 20 17 16 16 17 17 17 17 16 14 15 13 8 5 5 7 9 8 6 4 4 3 3 2 1 1 0 0 0 0 0 0 0 0 0 0 0
25 24 22 24 24 22 19 17 17 17 18 17 16 15 15 15 15 13 8 5 6 7 8 7 5 4 3 3 3 2 3 3 1 0 0 0 0 0 0 0 0 0 0
22 22 21 20 19 17 15 15 16 17 16 15 14 13 13 14 15 12 8 8 8 8 7 6 4 2 2 3 2 2 2 3 2 1 1 2 2 2 1 0 0 1 1
21 23 21 18 16 14 13 14 14 15 14 14 14 14 13 13 14 12 10 11 11 9 6 4 2 1 1 1 1 1 0 1 2 2 3 4 5 4 3 1 1 1 1
24 25 25 22 18 15 14 13 13 13 14 15 16 16 15 14 14 14 13 12 11 7 4 3 2 1 0 0 1 1 1 1 2 3 5 6 7 8 7 5 4 3 2
28 31 34 31 24 19 17 15 14 14 15 15 17 18 17 15 15 14 14 12 9 7 6 6 4 2 0 0 1 3 3 3 3 5 6 7 8 9 8 7 7 6 5
34 37 42 41 35 29 24 20 18 19 18 18 18 19 18 16 15 15 13 12 11 9 10 11 7 3 1 1 2 4 6 7 7 6 6 7 6 5 4 4 4 4 4
44 46 48 49 47 42 36 30 26 27 26 24 20 19 19 18 17 16 14 14 15 14 14 14 9 3 1 1 1 3 8 11 11 9 7 5 3 1 0 0 1 1 1
53 53 53 54 54 51 46 40 35 35 34 29 24 22 23 23 21 17 16 17 18 18 17 15 9 3 1 0 0 2 7 11 11 8 7 4 1 0 0 0 1 1 1
61 59 57 57 56 53 49 43 39 39 37 33 30 30 28 25 22 19 19 22 23 23 21 15 8 3 1 0 0 2 5 6 5 4 3 2 0 0 0 0 2 2 2
65 64 59 57 57 54 50 43 39 39 38 36 35 34 31 27 24 24 25 25 25 22 19 12 5 2 0 0 0 1 2 1 0 0 0 0 0 0 0 0 1 1 1
65 64 60 58 57 55 51 45 41 38 38 37 35 33 31 29 28 28 26 23 19 13 8 5 2 0 0 0 0 0 0 0 0 0 0 0 0 0 0 0 0 0 0
60 58 56 55 54 52 49 44 40 37 35 34 32 29 26 25 24 24 20 15 9 4 1 0 0 0 0 0 0 0 0 0 0 0 0 0 0 0 0 0 0 0 0
50 49 47 47 47 46 43 39 36 33 31 28 25 22 18 15 14 14 11 6 3 1 0 0 0 0 0 0 0 0 0 0 0 0 0 0 0 0 0 0 0 0 0
37 37 37 37 37 37 35 32 30 27 23 20 16 12 9 8 6 5 4 2 1 0 0 0 0 0 0 0 0 0 0 0 0 0 0 0 0 0 0 0 0 0 0
25 26 26 27 27 26 25 23 22 18 14 10 6 3 3 3 2 1 1 1 0 0 0 0 0 0 0 0 0 0 0 0 0 0 0 0 0 0 0 0 0 0 0
16 16 16 16 15 13 13 12 11 9 5 3 1 0 0 0 0 0 0 0 0 0 0 0 0 0 0 0 0 0 0 0 0 0 0 0 0 0 0 0 0 0 0
11 10 10 9 6 4 4 4 4 4 2 1 0 0 0 0 0 0 0 0 0 0 0 0 0 0 0 0 0 0 0 0 0 0 0 0 0 0 0 0 0 0 0
Wind_Speed
11 11 10 10 10 9 10 10 10 9 7 5 5 4 4 4 4 4 5 5 4 4 2 3 3 1 2 3 3 2 2 1 1 0 1 1 2 3 2 2 2 3 3
12 12 11 11 11 10 10 10 10 10 9 6 5 4 5 4 4 4 5 5 5 5 4 3 3 3 2 2 2 1 1 2 2 1 1 1 1 2 4 3 3 3 3
13 13 12 11 11 11 11 10 10 10 10 8 5 5 4 4 4 5 4 4 5 4 3 4 1 2 3 3 2 2 2 1 2 2 1 0 1 1 2 3 3 3 2
13 13 12 11 11 11 10 9 9 9 8 8 7 8 7 6 6 5 4 5 5 5 5 4 3 2 1 4 4 3 1 1 1 1 1 1 1 0 1 1 3 4 3
13 13 12 11 11 11 10 9 9 9 8 8 8 8 6 5 5 5 6 5 4 4 5 4 3 2 1 3 1 3 1 1 2 1 1 2 1 2 1 2 2 2 3
13 12 12 11 10 10 9 10 10 9 9 9 8 8 8 7 7 7 7 5 4 4 5 5 4 3 2 3 2 2 2 1 1 2 1 0 1 2 1 1 2 3 3
12 12 12 12 10 11 11 11 11 10 10 9 9 8 7 7 8 8 7 6 5 4 5 5 4 3 2 3 3 2 1 2 1 1 2 2 1 1 2 2 1 1 1
12 12 12 12 11 11 10 11 11 10 10 9 8 7 7 6 6 7 6 5 4 5 6 6 5 4 4 4 3 2 3 2 1 2 2 2 2 2 2 1 2 2 2
13 13 12 12 11 11 10 10 10 9 9 9 7 7 7 7 6 6 6 4 4 6 8 7 6 5 4 3 3 2 2 3 3 3 3 2 2 2 2 2 1 1 2
13 14 13 12 11 11 10 10 9 9 8 8 7 7 6 6 6 6 6 5 5 5 7 6 6 5 4 3 3 2 2 2 2 1 1 1 2 2 1 1 2 2 2
14 14 13 12 12 11 11 10 9 8 8 8 7 7 7 6 6 5 5 5 5 6 6 6 5 5 5 4 3 3 3 3 3 3 3 3 3 2 3 2 2 2 2
13 14 14 13 12 12 12 11 10 9 8 8 7 7 7 7 7 6 5 5 6 5 6 5 4 4 5 4 4 4 3 3 4 4 3 3 3 3 3 3 3 3 2
13 14 13 12 12 12 11 11 11 10 10 9 9 8 7 7 7 6 6 5 5 5 5 5 4 4 3 4 4 4 3 3 3 2 2 2 2 2 2 3 3 3 4
12 13 12 11 11 11 10 10 10 10 10 9 9 9 8 8 7 6 6 6 5 5 4 4 3 2 2 1 2 2 2 2 1 1 0 1 1 1 2 3 3 3 4
12 12 12 10 10 10 10 10 10 9 9 9 9 9 8 7 6 6 6 5 5 5 4 3 2 2 1 2 1 0 1 1 0 1 1 2 4 5 3 3 3 3 3
12 12 12 12 11 10 10 9 9 8 8 8 8 8 8 7 6 6 6 5 5 4 4 3 3 3 3 5 6 3 2 2 2 2 2 3 5 5 4 4 4 3 3
11 12 11 11 9 9 9 9 9 9 9 8 8 8 7 7 7 7 6 6 5 5 5 5 6 7 7 8 8 8 4 4 4 4 4 5 7 8 5 4 3 3 2
8 10 10 10 10 9 9 8 8 9 9 8 8 8 8 8 7 7 6 6 5 6 6 7 7 7 9 10 10 7 4 5 6 6 6 6 7 8 7 6 4 4 3
7 8 8 9 9 10 10 10 9 9 9 8 8 8 8 8 7 7 7 6 7 8 8 8 8 9 9 11 11 8 4 5 6 6 7 6 6 8 9 6 5 5 4
9 9 9 9 9 9 10 11 10 9 9 9 8 8 8 9 9 8 8 7 8 8 9 9 9 10 9 12 13 11 5 5 4 5 7 10 7 7 8 5 5 5 6
11 10 10 10 9 10 11 11 10 10 9 10 10 9 9 10 9 9 8 8 9 10 9 9 8 9 9 11 13 12 6 5 4 4 4 4 5 5 5 5 3 4 6
12 12 11 11 10 10 12 13 12 11 11 12 12 11 10 10 10 10 9 9 9 9 8 8 7 7 7 8 9 10 9 7 5 4 4 3 4 6 6 4 5 8 8
12 12 13 13 11 11 12 14 11 11 12 12 12 11 12 10 9 9 9 7 5 6 6 6 7 7 5 6 7 6 6 7 4 4 5 4 5 6 5 4 6 6 4
12 12 14 14 13 12 13 13 12 12 12 13 11 10 11 10 10 8 8 7 6 6 6 6 6 6 6 6 5 5 5 6 5 5 6 7 6 4 6 5 3 2 3
12 12 13 14 14 13 13 12 11 11 12 12 10 10 11 11 11 11 10 10 9 8 7 7 6 6 6 5 6 5 5 6 6 7 5 2 2 3 3 4 4 4 5
13 13 14 14 13 13 13 11 10 10 10 9 9 8 8 8 9 10 10 15 12 14 15 13 10 7 5 3 5 7 7 8 9 6 4 4 5 5 6 6 6 5 6
Wind_Direction
147 148 151 150 148 151 153 150 152 155 154 159 168 165 158 157 146 144 150 159 160 157 183 136 157 199 133 132 145 144 163 205 202 168 155 175 191 168 160 194 179 179 178
151 153 156 158 157 160 161 159 163 163 168 173 171 169 158 167 155 143 153 161 157 164 170 129 172 147 129 128 136 123 189 222 172 187 184 185 198 222 187 166 188 176 173
158 157 162 164 162 165 170 170 167 166 174 172 162 160 150 159 145 148 161 159 160 168 133 146 153 146 167 152 174 182 207 250 181 185 135 186 169 194 171 187 162 157 183
155 156 161 166 168 168 170 167 167 169 172 168 167 167 168 169 162 158 153 157 167 162 151 157 146 164 163 145 190 181 199 246 255 192 167 160 86 71 142 224 170 183 186
154 156 163 166 166 167 168 168 168 171 175 177 175 173 172 166 153 145 148 162 166 162 156 152 151 173 183 149 147 124 182 274 268 277 202 183 185 241 212 188 178 201 191
149 154 159 161 163 164 166 167 168 173 177 180 180 181 173 165 155 155 159 169 162 168 161 155 161 177 169 137 145 143 187 268 343 342 341 123 225 255 264 207 202 201 198
149 154 156 161 164 166 168 168 170 174 177 181 182 181 173 167 163 165 170 173 166 168 167 160 162 172 144 151 165 165 220 197 218 310 317 330 320 334 339 331 307 302 189
151 155 158 159 164 167 167 167 169 171 175 178 180 174 172 171 173 176 169 181 174 162 155 151 164 172 170 177 168 182 198 189 203 247 283 321 319 329 323 316 336 319 289
152 153 154 158 160 164 164 161 161 166 171 172 170 170 174 175 170 166 172 175 165 150 153 159 167 174 179 175 159 216 202 161 197 229 220 251 274 265 291 311 312 299 302
152 151 152 157 157 159 157 155 155 160 166 166 171 173 174 167 162 168 176 170 160 144 153 162 166 170 173 177 191 210 189 182 212 245 258 240 288 287 261 266 278 273 273
153 151 152 153 153 155 159 160 157 159 166 170 174 169 170 166 163 172 167 162 151 150 157 162 167 175 177 182 193 226 188 201 217 235 227 226 268 308 314 294 271 264 262
148 149 151 152 156 161 163 164 162 165 171 171 169 167 164 163 168 170 161 156 155 159 160 166 173 188 187 182 191 219 213 206 214 230 233 234 238 235 277 300 299 292 284
145 146 147 152 158 161 162 163 166 170 172 171 169 165 165 167 171 164 157 156 158 165 166 170 183 196 191 183 197 214 222 222 226 230 233 241 257 259 266 273 292 301 294
146 146 146 151 155 157 159 163 167 168 168 167 166 163 166 166 165 160 157 159 162 167 169 168 166 171 174 183 205 213 222 226 238 248 268 291 293 297 293 286 294 299 304
154 150 149 149 152 153 156 160 162 161 160 162 163 161 162 158 160 159 157 158 163 167 147 133 124 114 92 30 17 239 218 162 61 13 18 50 56 49 26 351 347 332 319
156 154 151 151 152 153 154 153 152 151 146 149 152 155 159 162 162 155 150 144 141 132 123 117 106 82 59 38 45 41 41 59 62 47 51 70 54 45 34 15 1 348 322
156 155 155 152 150 150 147 147 144 138 138 142 146 146 152 152 150 148 139 139 134 121 106 105 95 82 55 48 44 39 49 57 57 48 41 41 48 33 15 357 356 21 16
152 150 154 152 149 148 144 139 140 139 144 146 147 144 142 139 136 131 128 126 116 110 102 95 92 83 58 46 42 34 59 69 66 61 62 66 52 29 13 358 6 2 11
127 126 135 139 138 138 138 138 135 131 133 135 133 136 137 131 127 123 116 108 104 98 93 91 87 81 59 44 39 30 70 75 69 67 60 63 63 34 17 9 4 356 351
102 105 109 113 115 117 122 123 123 123 125 123 120 118 118 118 116 112 108 104 102 99 94 86 82 81 69 48 42 35 46 57 62 83 77 62 55 36 22 12 359 350 345
93 97 99 101 103 107 110 111 113 115 117 116 112 109 108 109 108 105 104 103 99 96 94 93 87 82 77 60 50 45 42 30 33 53 72 64 35 19 7 352 332 324 318
89 93 93 94 96 103 107 103 100 103 105 104 103 102 101 101 101 100 98 99 104 107 108 108 100 88 77 63 57 50 42 27 28 32 40 32 347 333 323 315 305 313 313
91 91 94 92 88 90 99 101 101 101 100 97 95 92 89 87 91 96 99 101 104 106 107 105 100 91 77 60 46 41 34 21 19 15 358 323 298 305 303 281 297 313 319
93 95 94 91 87 87 89 94 97 96 96 95 92 90 88 83 73 70 72 67 59 68 78 77 80 84 68 42 24 21 25 18 18 359 322 300 286 285 309 326 321 308 341
95 94 93 93 91 87 86 87 90 94 95 95 93 91 88 85 77 68 60 68 56 61 68 67 67 69 65 37 27 23 13 2 359 333 310 323 11 2 5 2 3 2 4
97 95 94 93 92 89 86 84 85 89 96 100 99 98 100 100 101 96 80 59 70 71 74 77 83 81 84 63 23 11 349 338 341 336 339 12 17 11 7 2 359 3 8